User: anonymous   Login
Location: Carbonear
(47.7333°N, 53.2500°W)
Time: 09:01:19
(UTC+00:00)
Language:

Max Valier Satellite - Orbit

View from above orbital plane
View from above orbital plane
View from above satellite
View from above satellite

Ground track
Ground track

The orbit data is extracted from the following two-line orbital elements,

1 42778U 17036P   22330.83285949  .00009884  00000-0  34105-3 0  9998
2 42778  97.1855   6.4700 0011826 105.4147 254.8401 15.30096952301707
Epoch (UTC): 26 November 2022 19:59:19
Eccentricity: 0.0011826
inclination: 97.1855°
perigee height: 467 km
apogee height: 483 km
right ascension of ascending node: 6.4700°
argument of perigee: 105.4147°
revolutions per day: 15.30096952
mean anomaly at epoch: 254.8401°
orbit number at epoch: 30170

The dashed part of the orbit path shows where the satellite is in the earth's shadow,  

DLR